[Date Prev][Date Next][Thread Prev][Thread Next] - [Date Index][Thread Index][Author Index]

2 Line ISS Keps 7-7



ISS
1 25544U 98067A   05156.93316091 +.00017322 +00000-0 +13114-3 0 06332
2 25544 051.6455 318.5778 0004820 207.7931 233.8893 15.72503796373914
----
Via the sarex mailing list at AMSAT.ORG courtesy of AMSAT-NA.
To unsubscribe, send "unsubscribe sarex" to Majordomo@amsat.org



AMSAT Top AMSAT Home